Location: Mapua
(41.2500°S, 173.1000°E)
Time: 22:04:03
(UTC+12:00)

Tiangong 2 - Visible Passes

Search period start: 21 July 2018 00:00
Search period end: 31 July 2018 00:00
Orbit: 386 x 394 km, 42.8° (Epoch: 21 July)

Date Brightness Start Highest point End Pass type
(mag) Time Alt. Az. Time Alt. Az. Time Alt. Az.
21 Jul 4.5 05:04:27 13° E 05:04:27 13° E 05:05:02 10° E visible
21 Jul 1.1 06:36:48 20° WNW 06:38:56 89° S 06:42:13 10° ESE visible
22 Jul 2.2 05:41:59 46° E 05:41:59 46° E 05:44:29 10° ESE visible
23 Jul 1.1 06:19:25 40° W 06:20:24 70° S 06:23:40 10° ESE visible
24 Jul 3.4 05:24:26 25° ESE 05:24:26 25° ESE 05:25:56 10° ESE visible
24 Jul 1.3 06:56:46 13° WSW 06:59:40 66° S 07:02:56 10° E visible
25 Jul 1.2 06:01:44 62° SSW 06:01:52 64° S 06:05:08 10° E visible
26 Jul 4.3 05:06:40 15° ESE 05:06:40 15° ESE 05:07:22 10° ESE visible
26 Jul 1.1 06:39:00 20° WSW 06:41:06 81° S 06:44:23 10° E visible
27 Jul 1.9 05:43:56 52° ESE 05:43:56 52° ESE 05:46:36 10° E visible
28 Jul 1.2 06:21:12 33° W 06:22:29 73° NNW 06:25:45 10° ENE visible
29 Jul 3.0 05:26:09 31° E 05:26:09 31° E 05:28:00 10° E visible
29 Jul 2.5 06:58:34 10° W 07:01:26 28° NNW 07:04:17 10° NNE visible
30 Jul 1.6 06:03:29 43° NW 06:03:47 44° NNW 06:06:54 10° NE visible
